Location: Cointrin
(46.2167°N, 6.1167°E)
Time: 06:36:23
(UTC+00:00)

Cosmos 1844 Rocket - Pass Details

Date: 08 February 2023
Orbit: 825 x 843 km, 71.0° (Epoch: 26 March)

Event Time Altitude Azimuth Distance (km) Brightness Sun altitude
Rises 17:58:46 0° 326° (NW) 3,373 6.2 -12.2°
Reaches altitude 10° 18:01:22 10° 318° (NW) 2,435 5.6 -12.7°
Maximum altitude 18:06:23 35° 254° (WSW) 1,301 4.4 -13.5°
Drops below altitude 10° 18:11:22 10° 190° (S) 2,423 5.3 -14.4°
Sets 18:13:58 0° 182° (S) 3,353 5.9 -14.8°
